This demonstration page uses our WeatherBlox Daily Observations layout. Learn more.

Left ArrowRight Arrow

34.74481, -87.66753

Hourly Observations for January 14, 2020

Temp ( °F °C ) Dew Point ( °F °C ) Humidity (%) Winds ( mph kmh ) Pressure ( in mb ) Visibility ( mi km ) Precip ( " mm )
12:53 am 00:53 Cloudy 63 17.2 60 15.6 90 90 S 9 15 30.14 1021 10 16 0.02 0.51
1:07 am 01:07 Cloudy 63 17.2 60 15.6 90 90 S 9 15 30.14 1021 10 16 0.01 0.25
1:53 am 01:53 Cloudy 63 17.2 60 15.6 90 90 S 7 11 30.12 1020 10 16 0.01 0.25
2:33 am 02:33 Cloudy with Nearby Thunderstorms 64 17.8 60 15.6 87 87 SSW 8 13 30.12 1020 10 16 0.00 0.00
2:43 am 02:43 Cloudy with Thunderstorms 64 17.8 60 15.6 87 87 SSW 3 6 30.12 1020 8 13 0.00 0.00
2:53 am 02:53 Cloudy with Thunderstorms 64 17.8 60 15.6 87 87 SSW 3 6 30.11 1020 7 11 0.01 0.25
3:08 am 03:08 Cloudy 64 17.8 61 16.1 90 90 VRB 7 11 30.12 1020 10 16 0.01 0.25
3:15 am 03:15 Cloudy with Light Rain 64 17.8 61 16.1 90 90 NNW 12 19 30.15 1021 8 13 0.01 0.25
3:22 am 03:22 Cloudy with Nearby Thunderstorms 64 17.8 61 16.1 90 90 NNW 10 17 30.14 1021 7 11 0.01 0.25
3:28 am 03:28 Cloudy with Strong Thunderstorms 64 17.8 61 16.1 90 90 NNW 5 7 30.14 1021 2 3 0.02 0.51
3:37 am 03:37 Cloudy with Strong Thunderstorms 63 17.2 61 16.1 93 93 NNW 7 11 30.13 1020 2 3 0.02 0.51
3:41 am 03:41 Cloudy with Nearby Thunderstorms 63 17.2 61 16.1 93 93 N 8 13 30.11 1020 3 4 0.03 0.76
3:53 am 03:53 Cloudy with Strong Thunderstorms 63 17.2 61 16.1 93 93 VRB 5 7 30.14 1021 1 2 0.04 1.02
4:02 am 04:02 Cloudy with Strong Thunderstorms 64 17.8 60 15.6 87 87 W 18 30 30.14 1021 2 3 0.00 0.00
4:12 am 04:12 Cloudy with Strong Thunderstorms 63 17.2 60 15.6 90 90 WSW 12 19 30.13 1020 4 6 0.00 0.00
4:23 am 04:23 Cloudy with Nearby Thunderstorms 64 17.8 60 15.6 87 87 SW 10 17 30.14 1021 7 11 0.00 0.00
4:53 am 04:53 Cloudy with Nearby Thunderstorms 63 17.2 60 15.6 90 90 WSW 8 13 30.14 1021 6 10 0.00 0.00
5:01 am 05:01 Cloudy with Thunderstorms 63 17.2 60 15.6 90 90 SW 6 9 30.13 1020 6 10 0.01 0.25
5:18 am 05:18 Cloudy with Rain 63 17.2 60 15.6 90 90 S 10 17 30.14 1021 8 13 0.02 0.51
5:49 am 05:49 Cloudy with Nearby Thunderstorms 63 17 61 16 94 94 W 5 7 30.18 1022 9 14 0.05 1.27
5:53 am 05:53 Cloudy with Nearby Thunderstorms 62 16.7 59 15 90 90 NW 8 13 30.18 1022 10 16 0.05 1.27
5:58 am 05:58 Cloudy 62 16.7 60 15.6 93 93 NNW 6 9 30.17 1022 10 16 0.01 0.25
6:07 am 06:07 Cloudy 63 17.2 60 15.6 90 90 NW 3 6 30.16 1021 10 16 0.01 0.25
6:24 am 06:24 Partly Cloudy 62 16.7 60 15.6 93 93 SSW 6 9 30.16 1021 10 16 0.03 0.76
6:53 am 06:53 Mostly Cloudy 62 16.7 60 15.6 93 93 WSW 3 6 30.18 1022 10 16 0.05 1.27
7:00 am 07:00 Cloudy 62 16.7 60 15.6 93 93 W 3 6 30.18 1022 10 16 0.00 0.00
7:46 am 07:46 Cloudy with Light Rain 62 16.7 60 15.6 93 93 Calm 30.19 1022 6 10 0.01 0.25
7:53 am 07:53 Cloudy with Light Rain 62 16.7 60 15.6 93 93 Calm 30.19 1023 4 6 0.01 0.25
8:32 am 08:32 Cloudy with Light Rain 62 16.7 60 15.6 93 93 Calm 30.20 1023 2 3 0.04 1.02
8:46 am 08:46 Cloudy with Rain 62 16.7 60 15.6 93 93 Calm 30.20 1023 1 2 0.05 1.27
8:53 am 08:53 Cloudy with Rain 62 16.7 60 15.6 93 93 ENE 3 6 30.20 1023 1 2 0.05 1.27
9:23 am 09:23 Cloudy with Light Rain 62 16.7 61 16.1 96 96 SE 3 6 30.20 1023 1 2 0.03 0.76
9:31 am 09:31 Cloudy with Mist and Fog 62 16.7 61 16.1 96 96 SSE 3 6 30.21 1023 3 5 0.04 1.02
9:47 am 09:47 Cloudy with Mist and Fog 63 17 61 16 94 94 Calm 30.21 1023 2 2 0.05 1.27
9:53 am 09:53 Cloudy with Mist and Fog 63 17.2 60 15.6 90 90 Calm 30.21 1023 1 2 0.05 1.27
9:58 am 09:58 Cloudy with Mist and Fog 63 17.2 60 15.6 90 90 Calm 30.21 1023 2 3 0.01 0.25
10:06 am 10:06 Cloudy with Light Rain 62 16.7 60 15.6 93 93 NNW 3 6 30.21 1023 1 1 0.01 0.25
10:18 am 10:18 Cloudy with Mist and Fog 63 17.2 61 16.1 93 93 NW 3 6 30.20 1023 2 3 0.02 0.51
10:26 am 10:26 Cloudy 63 17.2 61 16.1 93 93 Calm 30.19 1022 9 14 0.03 0.76
10:53 am 10:53 Cloudy 63 17.2 61 16.1 93 93 NW 6 9 30.19 1022 10 16 0.05 1.27
11:08 am 11:08 Cloudy 63 17.2 60 15.6 90 90 N 7 11 30.18 1022 10 16 0.00 0.00
11:21 am 11:21 Cloudy 63 17.2 60 15.6 90 90 N 7 11 30.18 1022 10 16 0.00 0.00
11:53 am 11:53 Cloudy 63 17.2 61 16.1 93 93 VRB 5 7 30.16 1021 10 16 0.00 0.00
12:08 pm 12:08 Cloudy 63 17.2 60 15.6 90 90 N 5 7 30.15 1021 10 16 0.00 0.00
12:53 pm 12:53 Cloudy 64 17.8 60 15.6 87 87 ENE 3 6 30.14 1021 10 16 0.00 0.00
1:09 pm 13:09 Cloudy 64 17.8 60 15.6 87 87 NNE 3 6 30.13 1020 10 16 0.00 0.00
1:53 pm 13:53 Cloudy 64 17.8 60 15.6 87 87 E 5 7 30.13 1020 10 16 0.00 0.00
2:50 pm 14:50 Cloudy 64 18 61 16 88 88 ESE 5 7 30.13 1020 10 16 0.00 0.00
2:53 pm 14:53 Cloudy 64 17.8 61 16.1 90 90 ESE 5 7 30.13 1020 10 16 0.00 0.00
3:53 pm 15:53 Cloudy 64 17.8 61 16.1 90 90 Calm 30.12 1020 10 16 0.00 0.00
4:53 pm 16:53 Cloudy 64 17.8 61 16.1 90 90 SSE 3 6 30.12 1020 8 13 0.00 0.00
5:53 pm 17:53 Cloudy 63 17.2 61 16.1 93 93 SSE 6 9 30.14 1021 10 16 0.00 0.00
6:53 pm 18:53 Cloudy 62 16.7 60 15.6 93 93 SE 5 7 30.15 1021 10 16 0.00 0.00
7:03 pm 19:03 Cloudy 63 17.2 60 15.6 90 90 SE 6 9 30.15 1021 10 16 0.00 0.00
7:41 pm 19:41 Cloudy 63 17.2 61 16.1 93 93 SSE 3 6 30.16 1021 9 14 0.00 0.00
7:50 pm 19:50 Cloudy 63 17 61 16 94 94 SSE 5 7 30.15 1021 8 13 0.00 0.00
7:53 pm 19:53 Cloudy 63 17.2 61 16.1 93 93 SSE 5 7 30.15 1021 8 13 0.00 0.00
7:56 pm 19:56 Cloudy 63 17.2 61 16.1 93 93 SSE 5 7 30.15 1021 7 11 0.00 0.00
8:16 pm 20:16 Cloudy 63 17.2 61 16.1 93 93 SSE 5 7 30.15 1021 7 11 0.00 0.00
8:38 pm 20:38 Cloudy 63 17.2 61 16.1 93 93 SSE 3 6 30.15 1021 10 16 0.00 0.00
8:53 pm 20:53 Cloudy 63 17.2 61 16.1 93 93 SSE 5 7 30.15 1021 10 16 0.00 0.00
9:53 pm 21:53 Cloudy 63 17.2 61 16.1 93 93 SSE 6 9 30.15 1021 10 16 0.00 0.00
10:53 pm 22:53 Cloudy 63 17.2 60 15.6 90 90 SSE 7 11 30.14 1021 10 16 0.00 0.00
11:53 pm 23:53 Cloudy 63 17.2 60 15.6 90 90 SSE 6 9 30.12 1020 10 16 0.00 0.00

Powered by AerisWeather